Location: 32930 Toén, Ourense, España
(42.3348°N, 7.8903°W)
Time: 13:16:52
(UTC+02:00)

ISS - Visible Passes

Search period start: 31 May 2020 00:00
Search period end: 10 June 2020 00:00
Orbit: 417 x 419 km, 51.6° (Epoch: 31 May)

Date Brightness Start Highest point End Pass type
(mag) Time Alt. Az. Time Alt. Az. Time Alt. Az.
31 May -1.7 00:47:32 10° W 00:49:10 20° WSW 00:49:10 20° WSW visible
31 May -3.1 23:59:24 10° WNW 00:02:35 40° SW 00:03:04 37° SSW visible
01 Jun -3.7 23:11:25 10° WNW 23:14:47 69° SW 23:16:59 20° SE visible
03 Jun -1.5 00:01:23 10° W 00:03:19 15° SW 00:03:53 14° SW visible
03 Jun -2.1 23:12:50 10° W 23:15:37 24° SW 23:17:54 13° S visible
